Location: Cañada de la Miga
(34.7595°N, 106.2317°W)
Time: 07:39:26
(UTC+00:00)

Transit 4A - Pass Details

Date: 08 December 2021
Orbit: 864 x 980 km, 66.8° (Epoch: 16 January)

Event Time Altitude Azimuth Distance (km) Brightness Sun altitude
Rises 08:57:22 0° 348° (NNW) 3,622 - -61.1°
Reaches altitude 10° 09:01:00 10° 9° (N) 2,694 - -60.4°
Maximum altitude 09:04:51 17° 47° (NE) 2,268 - -59.7°
Drops below altitude 10° 09:08:43 10° 85° (E) 2,720 - -58.9°
Sets 09:12:23 0° 106° (ESE) 3,672 - -58.2°
Exits shadow 09:12:35 -1° 107° (ESE) 3,733 11.5 -58.1°
